Location: *
(24.1434°N, 56.8729°E)
Time: 04:55:39
(UTC+00:00)

Delta 128 - Pass Details

Date: 09 April 2020
Orbit: 608 x 1216 km, 28.0° (Epoch: 05 June)

Event Time Altitude Azimuth Distance (km) Brightness Sun altitude
Rises 15:58:20 0° 284° (WNW) 2,862 8.6 -20.0°
Reaches altitude 10° 16:00:36 10° 281° (W) 1,982 7.3 -20.4°
Maximum altitude 16:05:07 66° 199° (SSW) 716 3.8 -21.4°
Enters shadow 16:06:07 51° 143° (SE) 836 3.8 -21.6°
